Location: N�rnberg
(49.4471°N, 11.0632°E)
Time: 21:59:17
(UTC+02:00)

VELOX 1 - Pass Details

Date: 25 April 2026
Orbit: 569 x 580 km, 98.3° (Epoch: 13 May)

Event Time Altitude Azimuth Distance (km) Brightness Sun altitude
Rises 23:33:36 0° 29° (NNE) 2,785 ? -23.4°
Reaches altitude 10° 23:36:23 10° 49° (NE) 1,882 ? -23.6°
Enters shadow 23:37:35 15° 65° (ENE) 1,606 ? -23.7°
